www.pogodaiklimat.ru

Погода и климат >> Архив погоды >> Кувейт >> Minagish


ПОГОДА в Minagish

  • Прогноз погоды в Minagish
  • Монитор погоды в Minagish
  • Климат города

АРХИВ ПОГОДЫ в Minagish

Время (UTC), дата Ветер
(напр.,м/с)
 
Видим.   Явления Облачность Т
(С)
Тd
(С)
f
(%)
Тe
(С)
Тes
(С)
Комфортность P
(гПа)
Po
(гПа)
Тmin
(С)
Tmax
(С)
R
(мм)
R24
(мм)
S
(см)
21 10.10 СЗ 3-3
{6}
6000 м дымка н/о +27.2 +2.4 20 +26 +26 жарко 1009.7 1010.0 +23.0 +40.0
00 11.10 СЗ 7-8
{9}
7000 м дымка н/о +25.3 +4.6 26 +25 +25 комфорт 1009.8 1010.0
03 11.10 СЗ 9-11
{11}
5000 м дымка н/о +24.8 +7.2 32 +25 +25 комфорт 1011.1 1011.0
06 11.10 С 12-15
{15}
7000 м дымка н/о +30.5 +6.4 22 +29 +29 жарко 1012.3 1012.0
09 11.10 СЗ 11-15
{15}
7000 м дым н/о +35.5 +2.7 13 +32 +32 жарко 1010.8 1011.0
12 11.10 СЗ 10-14
{16}
7000 м дым н/о +36.0 +2.6 12 +33 +33 жарко 1010.1 1010.0
15 11.10 С 5-6
{15}
7000 м дым н/о +31.8 +1.5 14 +29 +29 жарко 1011.3 1011.0
18 11.10 С 4-5
{15}
5000 м дымка н/о +27.6 +3.9 22 +26 +26 жарко 1012.6 1013.0
21 11.10 СЗ 3-4
{6}
5000 м дымка н/о +24.6 +4.1 26 +24 +24 комфорт 1013.1 1013.0 +24.2 +36.7
00 12.10 С 4-5
{7}
7000 м дымка н/о +23.5 +7.0 35 +24 +24 комфорт 1013.0 1013.0
03 12.10 С 4-5
{7}
8000 м дымка н/о +21.5 +7.2 40 +22 +22 комфорт 1014.0 1014.0
06 12.10 С 8-11
{11}
8000 м дымка н/о +28.6 +5.9 24 +27 +27 жарко 1015.3 1015.0
09 12.10 С 8-12
{13}
12 км н/о +33.0 +0.7 13 +30 +30 жарко 1013.7 1014.0
12 12.10 С 9-12
{13}
10 км н/о +34.4 +0.8 12 +31 +31 жарко 1012.4 1012.0
15 12.10 С 6-7
{12}
7000 м дым н/о +30.3 +1.0 15 +28 +28 жарко 1012.9 1013.0
18 12.10 С 4-5
{12}
6000 м дымка н/о +26.3 +2.2 21 +25 +25 комфорт 1014.0 1014.0
21 12.10 СЗ 3-4
{5}
7000 м дымка н/о +23.4 +2.6 26 +23 +23 комфорт 1013.4 1013.0 +21.4 +34.8
00 13.10 СЗ 2-3
{5}
8000 м дымка н/о +21.8 +3.0 29 +22 +22 комфорт 1012.6 1013.0
03 13.10 СЗ 2-3
{5}
9000 м дымка н/о +21.2 +2.0 28 +21 +21 комфорт 1013.7 1014.0
06 13.10 С 6-8
{8}
10 км дымка н/о +29.0 +0.8 16 +27 +27 жарко 1014.4 1014.0
09 13.10 С 5-8
{9}
9000 м дым н/о +34.9 -2.4 9 +31 +31 жарко 1011.8 1012.0
12 13.10 С 3-7
{9}
10 км н/о +36.3 +0.6 11 +33 +33 жарко 1010.1 1010.0
15 13.10 С 2-3
{7}
5000 м дым н/о +32.1 +0.8 14 +29 +29 жарко 1010.4 1010.0
18 13.10 В 2-2
{7}
7000 м дымка н/о +29.3 +1.7 17 +27 +27 жарко 1011.2 1011.0
21 13.10 ЮЗ 2-2
{3}
6000 м дымка н/о +25.4 +0.6 20 +24 +24 комфорт 1010.8 1011.0 +21.0 +36.5
00 14.10 З 3-3
{4}
6000 м дымка н/о +22.8 +1.3 24 +22 +22 комфорт 1010.6 1011.0
03 14.10 СЗ 3-3
{5}
8000 м н/о +20.0 +1.5 29 +21 +21 комфорт 1012.3 1012.0
06 14.10 С 3-4
{5}
8000 м н/о +30.4 +1.6 16 +28 +28 жарко 1012.7 1013.0
09 14.10 С 2-4
{7}
8000 м дым н/о +35.4 +1.9 12 +32 +32 жарко 1010.2 1010.0
12 14.10 В 3-4
{7}
7000 м дым н/о +36.5 +1.6 11 +33 +33 жарко 1008.6 1009.0
15 14.10 В 4-5
{7}
7000 м дым н/о +31.4 +3.2 17 +29 +29 жарко 1009.1 1009.0
18 14.10 ЮВ 3-3
{7}
7000 м дымка н/о +27.4 +3.9 22 +26 +26 жарко 1010.0 1010.0
21 14.10 Ю 4-4
{4}
8000 м дымка н/о +25.3 +4.2 26 +25 +25 комфорт 1009.7 1010.0 +20.0 +38.8
00 15.10 ЮЗ 3-3
{4}
8000 м н/о +22.4 +3.5 29 +22 +22 комфорт 1009.9 1010.0
03 15.10 СЗ 2-3
{4}
9000 м дымка н/о +21.3 +4.1 32 +22 +22 комфорт 1011.4 1011.0
06 15.10 ЮЗ 2-3
{4}
7000 м дымка н/о +31.2 +3.8 18 +29 +29 жарко 1011.9 1012.0
09 15.10 ЮВ 2-4
{6}
8000 м дым н/о +37.3 +2.2 11 +34 +34 очень
жарко
1010.4 1010.0
12 15.10 Ю 2-5
{7}
8000 м дым н/о +37.8 +1.8 11 +34 +34 очень
жарко
1008.9 1009.0
15 15.10 В 6-7
{11}
7000 м дым н/о +31.5 +3.3 17 +29 +29 жарко 1009.6 1010.0
18 15.10 ЮВ 4-5
{11}
7000 м дымка н/о +27.8 +13.8 42 +30 +30 жарко 1010.7 1011.0
21 15.10 Ю 4-5
{6}
7000 м дымка н/о +24.0 +12.2 48 +26 +26 жарко 1010.5 1011.0 +20.5 +39.4
00 16.10 З 2-2
{6}
8000 м дымка н/о +23.3 +11.6 48 +26 +26 жарко 1010.5 1011.0
03 16.10 СЗ 4-4
{6}
8000 м дымка н/о +22.2 +5.8 34 +23 +23 комфорт 1012.2 1012.0
06 16.10 СЗ 2-3
{6}
7000 м дым н/о +31.4 +2.3 16 +29 +29 жарко 1012.4 1012.0
09 16.10 ЮВ 2-5
{5}
8000 м дым н/о +36.9 +1.9 11 +33 +33 жарко 1010.4 1010.0
12 16.10 В 5-7
{7}
8000 м дым н/о +37.7 +0.8 10 +34 +34 очень
жарко
1008.5 1009.0
15 16.10 В 5-6
{11}
6000 м дымка н/о +31.1 +5.5 20 +29 +29 жарко 1009.0 1009.0
18 16.10 ЮВ 3-3
{11}
6000 м дымка н/о +26.7 +10.6 36 +27 +27 жарко 1010.4 1010.0
21 16.10 С 4-6
{6}
6000 м дымка н/о +25.0 +9.7 38 +26 +26 жарко 1010.2 1010.0 +22.0 +39.1
00 17.10 С 5-5
{7}
7000 м дымка н/о +23.8 +5.5 31 +24 +24 комфорт 1010.2 1010.0
03 17.10 С 4-4
{6}
6000 м дымка н/о +21.4 +2.6 29 +21 +21 комфорт 1011.3 1011.0
06 17.10 СВ 4-8
{9}
7000 м дым н/о +28.8 +1.5 17 +27 +27 жарко 1012.4 1012.0
09 17.10 СВ 8-12
{12}
6000 м дым н/о +33.1 +0.8 13 +30 +30 жарко 1011.0 1011.0
12 17.10 СВ 5-9
{12}
7000 м дым н/о +34.0 +0.8 12 +31 +31 жарко 1009.3 1009.0
15 17.10 СВ 5-6
{9}
7000 м дым н/о +29.9 +1.9 17 +28 +28 жарко 1009.9 1010.0

 

Местоположение метеостанции Minagish (Кувейт): широта 29.07 долгота 47.53 высота над уровнем моря 189 м.

В архиве по умолчанию представлена погода в Minagish за последнюю неделю. Архивные данные за месяц целиком и за предыдущие месяцы, начиная с января 2011 года, Вы можете получить, выбрав интересующий диапазон дат из раскрывающегося списка и нажав кнопку "Ввод!".

Внимание! Время в таблицах - всемирное. Для получения местного времени необходимо прибавить поправку, которая в Minagish равна 3 ч.

Смотрите также архив погоды в соседних городах и на ближайших метеорологических станциях:

Погода в Sulaibiya (Кувейт) (29 км)
Погода в Jahra (Кувейт) (31 км)
Погода в Kuwait (Кувейт) (46 км)
Погода в Experimental Farm (Кувейт) (47 км)
Погода в Abraque Al Habari (Кувейт) (57 км)
Погода в Shuwaikh (Кувейт) (58 км)
Погода в Al-Shuaiba (Кувейт) (63 км)
Погода в Juluiah Port (Кувейт) (76 км)
Погода в Al-Wafra (Кувейт) (77 км)
Погода в Sabriyah (Кувейт) (82 км)

Пояснения к столбцам:

Ветер - указаны скорость ветра в м/с - средняя за 10 мин, порывы в срок и между сроками (в фигурных скобках) и направление, откуда дует ветер: С - северный, СВ - северо-восточный, В - восточный, ЮВ - юго-восточный, Ю - южный, ЮЗ - юго-западный, З - западный, СЗ - северо-западный.
Видимость - горизонтальная дальность видимости в метрах или километрах. При видимости от 1 до 10 км при отсутствии осадков обычно наблюдается дымка, при ухудшении видимости до 1 км и менее - туман. В сухую погоду видимость может ухудшаться дымом, пылью или мглою.
Явления - указаны атмосферные явления, наблюдавшиеся в срок или в последний час перед сроком; фигурными скобками обозначены явления, наблюдавшиеся между сроками (за 1-3 часа до срока); квадратными скобками обозначены град или гололедные отложения с указанием их диаметра в мм.
Облачность - указаны через наклонную черту общая и нижняя облачность в баллах и высота нижней границы облаков в метрах; квадратными скобками обозначены формы облаков: Ci - перистые, Cs - перисто-слоистые, Cc - перисто-кучевые, Ac - высококучевые, As - высокослоистые, Sc - слоисто-кучевые, Ns - слоисто-дождевые, Cu - кучевые, Cb - кучево-дождевые. Подробнее классификацию облаков см. в Атласе облаков (PDF).
T - Температура воздуха - температура, измеренная на высоте 2 м над землей.
Td - Температура точки росы - температура, при понижении до которой содержащийся в воздухе водяной пар достигнет насыщения.
f - Относительная влажность воздуха - влажноcть воздуха, измеренная на высоте 2 м над землей.
Te - Эффективная температура - температура, которую ощущает одетый по сезону человек в тени. Характеристика душности погоды. При расчете учитывается влияние влажности воздуха и скорости ветра на теплоощущения человека.
Tes - Эффективная температура на солнце - температура, которую ощущает человек, с поправкой на солнечный нагрев. Характеристика знойности погоды. Зависит от высоты солнца над горизонтом, облачности и скорости ветра. Ночью, в пасмурную погоду, а также при ветре 12 м/с и более поправка равна нулю.
P - Атмосферное давление - приведенное к уровню моря атмосферное давление.
Po - Атмосферное давление - измеренное на уровне метеостанции атмосферное давление.
Tmin - Минимальная температура - минимум температуры воздуха на высоте 2 м над землей.
Tmax - Максимальная температура - максимум температуры воздуха на высоте 2 м над землей.
R - Количество осадков - Количество выпавших осадков за период времени, мм. При наведении курсора мыши на число - период времени, за который выпало указанное количество осадков.
R24 - Количество осадков - Количество выпавших осадков за 24 часа, мм.
S - Снежный покров - Высота снежного покрова, см. При наведении курсора мыши на число - состояние снежного покрова и степень покрытия местности в баллах.